Latest Coastal Weather Observations for Tasman Island

IDT60701

Issued at 5:52 am EST Tuesday 24 September 2019 (issued every 10 minutes, with the page automatically refreshed every 10 minutes)

About coastal observations | Map of coastal stations | Coastal observations for TAS | Marine services | Other Formats
Station Details ID: 094155 Name: TASMAN ISLAND Lat: -43.24 Lon: 148.00 Height: 240.0 m
Data from the previous 72 hours. | See also: Recent months at Tasman Island
Date/Time
EST
Wind Sea
Height
m
Swell Vis
km
Cloud Weather Temp
°C
Press
hPa
Rain since
9am
mm
Dir  Spd
kts
Gust
kts
Height
m
Period
s
Dir
24/05:30am NW 7 19 - - - - - - - 7.1 1016.6 0.0
24/05:00am WNW 6 16 - - - - - - - 7.3 1016.6 0.0
24/04:30am WNW 5 14 - - - - - - - 7.3 1016.8 0.0
24/04:00am NW 4 14 - - - - - - - 7.3 1016.7 0.0
24/03:30am E 4 12 - - - - - - - 7.4 1016.9 0.0
24/03:00am NNE 5 17 - - - - - - - 7.7 1016.5 0.0
24/02:30am WNW 6 17 - - - - - - - 7.6 1017.0 0.0
24/02:00am NNW 5 19 - - - - - - - 7.5 1017.2 0.0
24/01:30am WSW 5 13 - - - - - - - 7.9 1017.5 0.0
24/01:00am SSW 7 21 - - - - - - - 8.0 1017.6 0.0
24/12:30am W 6 18 - - - - - - - 7.7 1018.0 0.0
24/12:00am WNW 6 15 - - - - - - - 7.7 1017.8 0.0
 
Date/Time
EST
Wind Sea
Height
m
Swell Vis
km
Cloud Weather Temp
°C
Press
hPa
Rain since
9am
mm
Dir  Spd
kts
Gust
kts
Height
m
Period
s
Dir
23/11:30pm WNW 5 14 - - - - - - - 7.5 1017.9 0.0
23/11:00pm NW 4 13 - - - - - - - 7.5 1018.3 0.0
23/10:30pm W 4 14 - - - - - - - 7.6 1018.5 0.0
23/10:00pm WNW 6 15 - - - - - - - 7.4 1018.9 0.0
23/09:30pm NW 6 17 - - - - - - - 7.6 1019.1 0.0
23/09:00pm NNW 5 16 - - - - - - - 7.9 1019.1 0.0
23/08:30pm SE 4 18 - - - - - - - 8.0 1019.0 0.0
23/08:00pm SW 7 25 - - - - - - - 8.1 1019.0 0.0
23/07:30pm SW 7 20 - - - - - - - 8.3 1018.7 0.0
23/07:00pm WSW 7 23 - - - - - - - 8.4 1018.5 0.0
23/06:30pm WSW 11 24 - - - - - - - 8.2 1018.3 0.0
23/06:00pm SW 11 24 - - - - - - - 8.0 1018.0 0.0
23/05:30pm SW 13 24 - - - - - - - 8.2 1017.8 0.0
23/05:00pm SW 11 25 - - - - - - - 8.5 1017.6 0.0
23/04:32pm SSW 15 25 - - - - - - - 8.6 1017.5 0.0
23/04:30pm SSW 14 25 - - - - - - - 9.0 1017.6 0.0
23/04:00pm SSW 18 26 - - - - - - - 8.5 1017.3 0.0
23/03:30pm SSW 18 25 - - - - - - - 9.0 1017.4 0.0
23/03:00pm SW 18 25 - - - - - - - 9.2 1017.3 0.0
23/02:30pm SW 16 24 - - - - - - - 9.5 1017.3 0.0
23/02:06pm SW 15 25 - - - - - - - 9.4 1017.4 0.0
23/02:00pm SW 17 25 - - - - - - - 9.4 1017.4 0.0
23/01:45pm SSW 15 25 - - - - - - - 9.3 1017.5 0.0
23/01:30pm SW 14 25 - - - - - - - 9.4 1017.5 0.0
23/01:11pm SW 15 25 - - - - - - - 9.0 1017.6 0.0
23/01:00pm SW 13 25 - - - - - - - 9.1 1017.5 0.0
23/12:30pm SW 9 19 - - - - - - - 9.9 1017.7 0.0
23/12:00pm WSW 5 13 - - - - - - - 9.3 1017.9 0.0
23/11:30am SW 5 14 - - - - - - - 9.3 1017.9 0.0
23/11:00am WSW 5 14 - - - - - - - 9.2 1018.0 0.0
23/10:30am SSE 6 19 - - - - - - - 8.9 1017.9 0.0
23/10:00am WNW 4 16 - - - - - - - 8.8 1018.0 0.0
23/09:30am SW 5 17 - - - - - - - 8.5 1017.9 0.0
23/09:00am N 5 13 - - - - - - - 8.5 1017.7 -
23/08:30am ESE 3 11 - - - - - - - 8.6 1017.7 -
23/08:00am ENE 4 13 - - - - - - - 8.0 1017.6 -
23/07:30am W 5 15 - - - - - - - 7.5 1017.6 -
23/07:00am W 5 13 - - - - - - - 6.5 1017.5 -
23/06:30am WNW 4 11 - - - - - - - 6.4 1017.6 -
23/06:00am W 3 9 - - - - - - - 5.9 1017.4 -
23/05:30am WNW 8 15 - - - - - - - 6.1 1017.0 -
23/05:00am WNW 5 10 - - - - - - - 6.3 1017.1 -
23/04:30am WNW 5 13 - - - - - - - 6.4 1017.1 -
23/04:00am NW 8 14 - - - - - - - 6.5 1017.2 -
23/03:30am WNW 5 10 - - - - - - - 6.2 1017.2 -
23/03:00am WNW 6 13 - - - - - - - 6.5 1017.2 0.0
23/02:30am W 4 11 - - - - - - - 6.3 1017.3 -
23/02:00am WNW 8 14 - - - - - - - 6.2 1017.6 -
23/01:30am WNW 8 14 - - - - - - - 6.0 1017.7 -
23/01:00am WNW 6 11 - - - - - - - 6.0 1018.0 -
23/12:30am WNW 7 13 - - - - - - - 6.1 1018.1 -
23/12:00am NW 3 14 - - - - - - - 6.3 1018.0 -
 
Date/Time
EST
Wind Sea
Height
m
Swell Vis
km
Cloud Weather Temp
°C
Press
hPa
Rain since
9am
mm
Dir  Spd
kts
Gust
kts
Height
m
Period
s
Dir
22/11:30pm NW 6 12 - - - - - - - 6.3 1018.2 -
22/11:00pm WNW 6 15 - - - - - - - 6.2 1018.4 -
22/10:30pm WNW 4 11 - - - - - - - 6.3 1018.4 -
22/10:00pm S 4 12 - - - - - - - 6.5 1018.4 -
22/09:30pm NW 4 14 - - - - - - - 6.6 1018.5 -
22/09:00pm WNW 3 12 - - - - - - - 6.7 1018.4 0.0
22/08:30pm ESE 6 12 - - - - - - - 6.5 1018.3 -
22/08:00pm NE 4 10 - - - - - - - 6.7 1017.9 -
22/07:30pm NE 4 10 - - - - - - - 6.8 1017.8 -
22/07:00pm WSW 5 16 - - - - - - - 7.0 1017.5 -
22/06:30pm SW 6 21 - - - - - - - 6.8 1017.4 -
22/06:00pm SW 7 19 - - - - - - - 6.8 1017.0 -
22/05:30pm WSW 4 12 - - - - - - - 7.0 1016.9 -
22/05:00pm WSW 5 14 - - - - - - - 7.3 1016.6 -
22/04:30pm WNW 4 14 - - - - - - - 7.8 1016.3 -
22/04:00pm SSE 4 16 - - - - - - - 7.7 1016.0 -
22/03:30pm W 7 18 - - - - - - - 7.1 1015.9 -
22/03:00pm WSW 6 13 - - - - - - - 7.2 1015.8 -
22/02:30pm SW 3 9 - - - - - - - 9.4 1015.6 -
22/02:00pm ENE 4 10 - - - - - - - 8.3 1015.6 -
22/01:30pm SW 4 16 - - - - - - - 8.9 1015.6 -
22/01:00pm SSW 4 12 - - - - - - - 8.2 1015.6 -
22/12:30pm NW 11 21 - - - - - - - 7.9 1015.5 0.2
22/12:00pm NNW 7 19 - - - - - - - 9.3 1015.5 0.2
22/11:30am NW 5 15 - - - - - - - 8.7 1015.2 0.2
22/11:00am NNW 4 9 - - - - - - - 8.3 1015.1 0.2
22/10:30am WSW 5 16 - - - - - - - 6.6 1015.2 0.2
22/10:00am SW 13 20 - - - - - - - 6.0 1015.0 0.0
22/09:30am WSW 4 12 - - - - - - - 7.3 1014.8 0.0
22/09:00am SSE 3 11 - - - - - - - 7.1 1014.8 1.2
22/08:30am NW 4 8 - - - - - - - 7.0 1014.5 1.2
22/08:00am NNW 3 9 - - - - - - - 6.2 1014.2 1.2
22/07:30am NNW 3 9 - - - - - - - 6.5 1013.9 1.2
22/07:00am WNW 4 16 - - - - - - - 6.1 1013.4 1.2
22/06:30am W 4 10 - - - - - - - 6.1 1013.3 1.2
22/06:00am SSW 7 20 - - - - - - - 5.5 1012.7 1.2
22/05:30am SW 5 19 - - - - - - - 6.0 1011.9 1.2
22/05:00am SW 5 14 - - - - - - - 7.0 1011.8 1.2
22/04:30am NE 4 11 - - - - - - - 7.1 1011.3 1.2
22/04:00am NW 6 20 - - - - - - - 7.0 1010.6 1.2
22/03:30am N 6 24 - - - - - - - 7.0 1009.9 1.2
22/03:00am NNW 7 23 - - - - - - - 7.1 1008.6 1.2
22/02:30am NNW 8 23 - - - - - - - 7.3 1008.2 1.2
22/02:00am NNW 10 24 - - - - - - - 7.4 1007.2 1.2
22/01:30am NW 10 23 - - - - - - - 7.6 1005.7 1.2
22/01:00am NNW 9 24 - - - - - - - 7.6 1005.6 1.2
22/12:30am NNW 8 24 - - - - - - - 7.8 1004.7 1.2
22/12:00am WNW 9 25 - - - - - - - 8.2 1003.8 1.2
 
Date/Time
EST
Wind Sea
Height
m
Swell Vis
km
Cloud Weather Temp
°C
Press
hPa
Rain since
9am
mm
Dir  Spd
kts
Gust
kts
Height
m
Period
s
Dir
21/11:30pm W 11 25 - - - - - - - 8.7 1002.6 1.2
21/11:00pm WNW 14 26 - - - - - - - 9.0 1002.8 1.2
21/10:30pm NW 12 26 - - - - - - - 9.3 1002.3 1.2
21/10:00pm WNW 14 24 - - - - - - - 9.4 1001.1 1.2
21/09:35pm WNW 15 25 - - - - - - - 9.9 1000.5 1.2
21/09:30pm WNW 11 28 - - - - - - - 10.1 1000.8 1.2
21/09:14pm WNW 15 25 - - - - - - - 11.3 1000.1 1.2
21/09:00pm NW 6 26 - - - - - - Recent precip. 11.9 999.5 1.2
21/08:30pm NW 6 23 - - - - - - - 13.2 998.2 1.2
21/08:06pm NW 15 26 - - - - - - - 13.4 998.4 1.0
21/08:00pm NW 19 26 - - - - - - - 13.2 998.8 1.0
21/07:30pm NNW 18 26 - - - - - - - 13.0 999.0 1.0
21/07:00pm N 17 26 - - - - - - - 13.1 998.8 1.0
21/06:31pm N 16 26 - - - - - - - 13.9 998.8 1.0
21/06:30pm N 16 25 - - - - - - - 13.9 999.0 1.0
21/06:23pm N 16 26 - - - - - - - 14.3 999.6 1.0
21/06:00pm N 18 26 - - - - - - - 14.4 999.7 1.0
21/05:30pm N 17 26 - - - - - - - 14.3 1000.5 1.0
21/05:00pm N 19 26 - - - - - - - 13.9 1000.3 1.0
21/04:30pm N 17 25 - - - - - - - 13.7 1000.1 1.0
21/04:00pm N 16 25 - - - - - - - 14.8 1000.1 1.0
21/03:42pm N 15 26 - - - - - - - 14.1 1001.4 1.0
21/03:30pm NNW 20 25 - - - - - - - 15.4 1001.6 1.0
21/03:13pm NNW 15 25 - - - - - - - 14.3 1001.9 1.0
21/03:00pm NNW 21 26 - - - - - - Rain 13.9 1002.3 0.4
21/02:30pm N 20 26 - - - - - - - 12.3 1001.8 0.0
21/02:00pm N 17 26 - - - - - - - 12.5 1002.2 0.0
21/01:50pm N 15 26 - - - - - - - 12.4 1002.3 0.0
21/01:30pm NNE 20 26 - - - - - - - 12.2 1002.5 0.0
21/01:00pm NNE 22 26 - - - - - - - 12.1 1003.3 0.0
21/12:30pm N 20 26 - - - - - - - 13.2 1004.3 0.0
21/12:00pm N 22 26 - - - - - - - 12.6 1005.0 0.0
21/11:30am N 20 26 - - - - - - - 12.7 1005.6 0.0
21/11:00am N 20 26 - - - - - - - 12.6 1006.0 0.0
21/10:30am N 20 26 - - - - - - - 12.4 1006.4 0.0
21/10:00am N 21 26 - - - - - - - 12.1 1006.9 0.0
21/09:30am NNE 22 26 - - - - - - - 12.4 1007.4 0.0
21/09:00am N 21 26 - - - - - - - 12.3 1007.8 0.4
21/08:30am NNE 20 25 - - - - - - - 12.5 1007.9 0.4
21/08:00am NNE 19 23 - - - - - - - 11.9 1008.3 0.4
21/07:30am NNE 20 26 - - - - - - - 12.1 1008.9 0.4
21/07:00am NNE 22 26 - - - - - - - 12.1 1009.0 0.4
21/06:30am NNE 20 26 - - - - - - - 12.0 1009.6 0.2
21/06:05am NNE 16 26 - - - - - - - 12.0 1009.6 0.2
21/06:00am NNE 19 26 - - - - - - - 12.1 1009.5 0.2

Other formats

Comma delimited format used in spreadsheet applications
http://www.bom.gov.au/fwo/IDT60701/IDT60701.95986.axf

JavaScript Object Notation format (JSON) in row-major order
http://www.bom.gov.au/fwo/IDT60701/IDT60701.95986.json

Data quality

Most of these data are generated automatically and are frequently updated. Quality checks on data are not normally performed. It is possible for incorrect values to appear. Refer to information at About Latest Weather Observations and please check the disclaimer before using these data.